Location: Brno
(49.2000°N, 16.6330°E)
Time: 21:06:18
(UTC+02:00)

Explorer 11/Cluster Stage 4 - Pass Details

Date: 27 July 2021
Orbit: 467 x 1257 km, 28.8° (Epoch: 17 September)

Event Time Altitude Azimuth Distance (km) Brightness Sun altitude
Rises 12:51:48 0° 223° (SW) 4,102 10.5 59.9°
Reaches altitude 10° 12:56:54 10° 197° (SSW) 3,009 10.2 59.9°
Maximum altitude 12:59:38 12° 175° (S) 2,749 10.1 59.9°
Drops below altitude 10° 13:02:14 10° 153° (SSE) 2,821 10.0 59.9°
Sets 13:06:37 0° 125° (SE) 3,575 10.2 59.9°
